• In Uzbekistan
  • List of Countries
  • For 7 days
  • Water Temperature
  • Satellite Maps
  • Weather Map
  • Weather Widgets
  • user-avatar
    Login

    Hourly Weather Newcastle

    Today, 3 December, Saturday

    Time Temperature Precipitation Wind Pressure Humidity
    00:00 +22°C° 0 mm 4 mps 759 mmHg 63%
    01:00 +21°C° 0 mm 4 mps 759 mmHg 71%
    02:00 +20°C° 0 mm 4 mps 759 mmHg 78%
    03:00 +19°C° 0 mm 4 mps 759 mmHg 86%
    04:00 +18°C° 0 mm 3 mps 759 mmHg 96%
    05:00 +20°C° 0 mm 3 mps 759 mmHg 91%
    06:00 +21°C° 0 mm 4 mps 760 mmHg 86%
    07:00 +22°C° 0 mm 4 mps 760 mmHg 81%
    08:00 +25°C° 0 mm 4 mps 760 mmHg 73%
    09:00 +27°C° 0 mm 4 mps 760 mmHg 64%
    10:00 +28°C° 0 mm 4 mps 760 mmHg 56%
    11:00 +29°C° 0 mm 4 mps 760 mmHg 54%
    12:00 +30°C° 0 mm 4 mps 759 mmHg 51%
    13:00 +32°C° 0 mm 4 mps 759 mmHg 49%
    14:00 +29°C° 0.2 mm 4 mps 759 mmHg 56%
    15:00 +28°C° 0.2 mm 4 mps 759 mmHg 63%
    16:00 +26°C° 0.2 mm 3 mps 759 mmHg 70%
    17:00 +25°C° 0.7 mm 3 mps 759 mmHg 79%
    18:00 +23°C° 0.7 mm 2 mps 759 mmHg 88%
    19:00 +20°C° 0.7 mm 2 mps 760 mmHg 98%
    20:00 +19°C° 0.2 mm 2 mps 760 mmHg 98%
    21:00 +20°C° 0.2 mm 1 mps 760 mmHg 99%
    22:00 +19°C° 0.2 mm 1 mps 761 mmHg 99%
    23:00 +20°C° 0 mm 1 mps 760 mmHg 99%

    Tomorrow, 4 December, Sunday

    Time Temperature Precipitation Wind Pressure Humidity
    00:00 +20°C° 0 mm 1 mps 760 mmHg 99%
    01:00 +20°C° 0 mm 1 mps 760 mmHg 99%
    02:00 +20°C° 0 mm 1 mps 760 mmHg 99%
    03:00 +20°C° 0 mm 1 mps 760 mmHg 99%
    04:00 +20°C° 0 mm 1 mps 760 mmHg 99%
    05:00 +21°C° 0 mm 1 mps 760 mmHg 97%
    06:00 +22°C° 0 mm 1 mps 760 mmHg 95%
    07:00 +23°C° 0 mm 1 mps 760 mmHg 93%
    08:00 +24°C° 0 mm 1 mps 760 mmHg 85%
    09:00 +26°C° 0 mm 1 mps 760 mmHg 77%
    10:00 +28°C° 0 mm 1 mps 759 mmHg 69%
    11:00 +30°C° 0 mm 1 mps 759 mmHg 60%
    12:00 +32°C° 0 mm 2 mps 758 mmHg 51%
    13:00 +35°C° 0 mm 2 mps 757 mmHg 43%
    14:00 +35°C° 0 mm 3 mps 757 mmHg 46%
    15:00 +34°C° 0 mm 3 mps 757 mmHg 48%
    16:00 +34°C° 0 mm 4 mps 756 mmHg 51%
    17:00 +30°C° 0 mm 4 mps 756 mmHg 61%
    18:00 +28°C° 0 mm 4 mps 757 mmHg 72%
    19:00 +26°C° 0 mm 5 mps 757 mmHg 82%
    20:00 +25°C° 0 mm 4 mps 757 mmHg 86%
    21:00 +23°C° 0 mm 4 mps 757 mmHg 90%
    22:00 +22°C° 0 mm 3 mps 757 mmHg 94%
    23:00 +21°C° 0 mm 3 mps 757 mmHg 95%

    Day after tomorrow, 5 December, Monday

    Time Temperature Precipitation Wind Pressure Humidity
    00:00 +20°C° 0 mm 3 mps 756 mmHg 96%
    01:00 +20°C° 0 mm 3 mps 756 mmHg 97%
    02:00 +20°C° 0 mm 3 mps 755 mmHg 96%
    03:00 +21°C° 0 mm 3 mps 755 mmHg 95%
    04:00 +21°C° 0 mm 3 mps 755 mmHg 95%
    05:00 +25°C° 0 mm 3 mps 755 mmHg 82%
    06:00 +27°C° 0 mm 3 mps 755 mmHg 69%
    07:00 +30°C° 0 mm 3 mps 755 mmHg 56%
    08:00 +35°C° 0 mm 3 mps 755 mmHg 44%
    09:00 +39°C° 0 mm 3 mps 755 mmHg 31%
    10:00 +44°C° 0 mm 3 mps 754 mmHg 19%
    11:00 +45°C° 0 mm 4 mps 754 mmHg 17%
    12:00 +47°C° 0 mm 4 mps 754 mmHg 16%
    13:00 +48°C° 0 mm 4 mps 753 mmHg 14%
    14:00 +44°C° 0 mm 4 mps 753 mmHg 23%
    15:00 +40°C° 0 mm 4 mps 753 mmHg 31%
    16:00 +36°C° 0 mm 4 mps 753 mmHg 40%
    17:00 +34°C° 0 mm 4 mps 754 mmHg 50%
    18:00 +30°C° 0 mm 4 mps 755 mmHg 61%
    19:00 +28°C° 0 mm 4 mps 756 mmHg 71%
    20:00 +27°C° 0.2 mm 5 mps 757 mmHg 76%
    21:00 +26°C° 0.2 mm 5 mps 758 mmHg 81%
    22:00 +23°C° 0.2 mm 6 mps 759 mmHg 86%
    23:00 +23°C° 0.1 mm 5 mps 758 mmHg 89%

    6 December, Tuesday

    Time Temperature Precipitation Wind Pressure Humidity
    00:00 +22°C° 0.1 mm 4 mps 758 mmHg 91%
    01:00 +22°C° 0.1 mm 3 mps 758 mmHg 94%
    02:00 +22°C° 0 mm 3 mps 758 mmHg 94%
    03:00 +22°C° 0 mm 3 mps 758 mmHg 95%
    04:00 +22°C° 0 mm 4 mps 758 mmHg 95%
    05:00 +22°C° 0 mm 4 mps 759 mmHg 94%
    06:00 +22°C° 0 mm 4 mps 759 mmHg 92%
    07:00 +22°C° 0 mm 3 mps 759 mmHg 91%
    08:00 +24°C° 0 mm 3 mps 759 mmHg 87%
    09:00 +24°C° 0 mm 3 mps 759 mmHg 84%
    10:00 +25°C° 0 mm 2 mps 759 mmHg 81%
    11:00 +28°C° 0 mm 2 mps 758 mmHg 69%
    12:00 +31°C° 0 mm 3 mps 758 mmHg 56%
    13:00 +35°C° 0 mm 3 mps 757 mmHg 44%
    14:00 +34°C° 0.1 mm 3 mps 757 mmHg 48%
    15:00 +33°C° 0.1 mm 3 mps 757 mmHg 53%
    16:00 +32°C° 0.1 mm 4 mps 757 mmHg 58%
    17:00 +28°C° 0.8 mm 4 mps 757 mmHg 69%
    18:00 +26°C° 0.8 mm 4 mps 758 mmHg 81%
    19:00 +23°C° 0.8 mm 4 mps 759 mmHg 93%
    20:00 +22°C° 0.5 mm 3 mps 759 mmHg 94%
    21:00 +23°C° 0.5 mm 2 mps 760 mmHg 95%
    22:00 +23°C° 0.5 mm 1 mps 760 mmHg 96%
    23:00 +23°C° 1.1 mm 2 mps 760 mmHg 97%

    7 December, Wednesday

    Time Temperature Precipitation Wind Pressure Humidity
    00:00 +23°C° 1.1 mm 2 mps 760 mmHg 98%
    01:00 +22°C° 1.1 mm 3 mps 760 mmHg 98%
    02:00 +22°C° 1.2 mm 4 mps 760 mmHg 98%
    03:00 +21°C° 1.2 mm 4 mps 760 mmHg 98%
    04:00 +21°C° 1.2 mm 5 mps 760 mmHg 98%
    05:00 +21°C° 0.7 mm 5 mps 760 mmHg 98%
    06:00 +21°C° 0.7 mm 5 mps 761 mmHg 98%
    07:00 +21°C° 0.7 mm 4 mps 761 mmHg 97%
    08:00 +21°C° 0.9 mm 4 mps 762 mmHg 97%
    09:00 +21°C° 0.9 mm 4 mps 762 mmHg 97%
    10:00 +21°C° 0.9 mm 4 mps 762 mmHg 97%
    11:00 +21°C° 0.4 mm 4 mps 762 mmHg 96%
    12:00 +21°C° 0.4 mm 4 mps 762 mmHg 94%
    13:00 +22°C° 0.4 mm 3 mps 762 mmHg 93%
    14:00 +22°C° 0.2 mm 3 mps 761 mmHg 93%
    15:00 +22°C° 0.2 mm 3 mps 761 mmHg 92%
    16:00 +22°C° 0.2 mm 3 mps 761 mmHg 92%
    17:00 +21°C° 0.1 mm 3 mps 761 mmHg 93%
    18:00 +21°C° 0.1 mm 3 mps 762 mmHg 94%
    19:00 +21°C° 0.1 mm 3 mps 762 mmHg 95%
    20:00 +21°C° 0 mm 3 mps 762 mmHg 96%
    21:00 +20°C° 0 mm 3 mps 762 mmHg 97%
    22:00 +20°C° 0 mm 2 mps 762 mmHg 98%
    23:00 +20°C° 0 mm 3 mps 761 mmHg 98%

    8 December, Thursday

    Time Temperature Precipitation Wind Pressure Humidity
    00:00 +20°C° 0 mm 3 mps 760 mmHg 98%
    01:00 +20°C° 0 mm 3 mps 760 mmHg 98%
    02:00 +20°C° 0 mm 3 mps 760 mmHg 98%
    03:00 +20°C° 0 mm 3 mps 760 mmHg 98%
    04:00 +20°C° 0 mm 2 mps 759 mmHg 99%
    05:00 +20°C° 0 mm 3 mps 759 mmHg 96%
    06:00 +21°C° 0 mm 3 mps 759 mmHg 94%
    07:00 +22°C° 0 mm 3 mps 759 mmHg 92%
    08:00 +24°C° 0 mm 3 mps 759 mmHg 84%
    09:00 +26°C° 0 mm 3 mps 758 mmHg 77%
    10:00 +28°C° 0 mm 3 mps 758 mmHg 69%
    11:00 +28°C° 0.6 mm 4 mps 757 mmHg 70%
    12:00 +29°C° 0.6 mm 4 mps 756 mmHg 72%
    13:00 +29°C° 0.6 mm 5 mps 755 mmHg 73%
    14:00 +29°C° 1.7 mm 5 mps 755 mmHg 74%
    15:00 +29°C° 1.7 mm 5 mps 754 mmHg 76%
    16:00 +29°C° 1.7 mm 4 mps 754 mmHg 77%
    17:00 +28°C° 1 mm 4 mps 754 mmHg 81%
    18:00 +27°C° 1 mm 4 mps 754 mmHg 84%
    19:00 +25°C° 1 mm 5 mps 754 mmHg 88%
    20:00 +25°C° 0 mm 4 mps 754 mmHg 88%
    21:00 +23°C° 0 mm 4 mps 754 mmHg 89%
    22:00 +22°C° 0 mm 3 mps 754 mmHg 89%
    23:00 +22°C° 0 mm 3 mps 754 mmHg 88%
    Show more